Tracking 25711 objects as of 22-May-2022
HD Live streaming from Space Station
objects crossing your sky now

COSMOS 1341

Track COSMOS 1341 now!
COSMOS 1341 is classified as:


NORAD ID: 13080
Int'l Code: 1982-016A
Perigee: 3,281.1 km
Apogee: 37,082.8 km
Inclination: 68.2 °
Period: 717.7 minutes
Semi major axis: 26552 km
RCS: 8.091 m2 (large)
Launch date: March 3, 1982
Source: Commonwealth of Independent States (former USSR) (CIS)
Launch site: PLESETSK MISSILE AND SPACE COMPLEX (PKMTR)
aabbcc
Your satellite tracking list
Your tracking list is empty




NASA's NSSDC Master Catalog

Two Line Element Set (TLE):
1 13080U 82016A   22141.11557403  .00000140  00000-0  00000-0 0  9990
2 13080  68.1807  89.6209 6364973 357.5728   0.2780  2.00647902204882
Source of the keplerian elements: AFSPC